TimeEDT,TemperatureF,Dew PointF,Humidity,Sea Level PressureIn,VisibilityMPH,Wind Direction,Wind SpeedMPH,Gust SpeedMPH,PrecipitationIn,Events,Conditions,WindDirDegrees,DateUTC
12:53 AM,54.0,44.1,69,30.08,10.0,NW,4.6,-,N/A,,Clear,320,2011-10-25 04:53:00
1:53 AM,51.1,43.0,74,30.10,10.0,Calm,Calm,-,N/A,,Clear,0,2011-10-25 05:53:00
2:53 AM,54.0,41.0,62,30.12,10.0,Calm,Calm,-,N/A,,Clear,0,2011-10-25 06:53:00
3:53 AM,48.0,42.1,80,30.12,10.0,Calm,Calm,-,N/A,,Clear,0,2011-10-25 07:53:00
4:53 AM,48.0,41.0,77,30.14,10.0,Calm,Calm,-,N/A,,Clear,0,2011-10-25 08:53:00
5:53 AM,48.0,39.9,74,30.16,10.0,Calm,Calm,-,N/A,,Clear,0,2011-10-25 09:53:00
6:53 AM,41.0,39.0,93,30.18,7.0,Calm,Calm,-,N/A,,Clear,0,2011-10-25 10:53:00
7:53 AM,43.0,39.9,89,30.21,10.0,Calm,Calm,-,N/A,,Clear,0,2011-10-25 11:53:00
8:53 AM,48.9,43.0,80,30.24,10.0,Calm,Calm,-,N/A,,Clear,0,2011-10-25 12:53:00
9:53 AM,57.0,45.0,64,30.24,10.0,Calm,Calm,-,N/A,,Clear,0,2011-10-25 13:53:00
10:53 AM,60.8,39.2,45,30.24,10.0,Calm,Calm,-,N/A,,Clear,0,2011-10-25 14:53:00
11:53 AM,62.1,39.0,43,30.22,10.0,SSW,5.8,-,N/A,,Clear,200,2011-10-25 15:53:00
12:53 PM,64.9,39.0,39,30.20,10.0,SW,9.2,-,N/A,,Clear,230,2011-10-25 16:53:00
1:53 PM,66.9,39.0,36,30.18,10.0,Calm,Calm,-,N/A,,Clear,0,2011-10-25 17:53:00
2:53 PM,68.0,37.0,32,30.14,10.0,Calm,Calm,-,N/A,,Clear,0,2011-10-25 18:53:00
3:53 PM,68.0,37.0,32,30.12,10.0,SSW,4.6,-,N/A,,Clear,210,2011-10-25 19:53:00
4:53 PM,68.0,37.9,33,30.12,10.0,SW,12.7,-,N/A,,Clear,220,2011-10-25 20:53:00
5:53 PM,64.0,42.1,45,30.11,10.0,SW,11.5,-,N/A,,Clear,220,2011-10-25 21:53:00
6:53 PM,60.1,42.1,51,30.12,10.0,South,5.8,-,N/A,,Clear,180,2011-10-25 22:53:00
7:53 PM,57.0,42.1,57,30.12,10.0,South,5.8,-,N/A,,Clear,180,2011-10-25 23:53:00
8:53 PM,55.9,43.0,62,30.11,10.0,South,6.9,-,N/A,,Clear,190,2011-10-26 00:53:00
9:53 PM,55.0,43.0,64,30.10,10.0,South,6.9,-,N/A,,Clear,190,2011-10-26 01:53:00
10:53 PM,52.0,44.1,74,30.09,10.0,SSW,3.5,-,N/A,,Clear,210,2011-10-26 02:53:00
11:53 PM,55.9,42.1,60,30.08,10.0,SSW,4.6,-,N/A,,Clear,210,2011-10-26 03:53:00